SCP
0 0 0 0 0 0 0 0 0 0 0 0 0 0 0 0 0 0 0 1 1 1 1 1 0 0 0 0 0 0 0 0 0 0 0 0 0 0 0 0 0 0 0 0 0 0 0 0 0
0 0 0 0 0 0 0 0 0 0 0 0 0 0 0 0 0 0 0 1 1 1 1 1 1 0 0 0 0 0 0 0 0 0 0 0 0 0 0 0 0 0 0 0 0 0 0 0 0
0 0 0 0 0 0 0 0 0 0 0 0 0 0 0 0 0 0 1 1 1 1 1 1 1 0 0 0 0 0 0 0 0 0 0 0 0 0 0 0 0 0 0 0 0 0 0 0 0
0 0 0 0 0 0 0 0 0 0 0 0 0 0 0 0 0 0 1 1 1 1 1 1 1 1 0 0 0 0 0 0 0 0 0 0 0 0 0 0 0 0 0 0 0 0 0 0 0
0 0 0 0 0 0 0 0 0 0 0 0 0 0 1 1 0 1 1 1 1 1 1 1 1 1 0 0 0 0 0 0 0 0 0 0 0 0 0 0 0 0 0 0 0 0 0 0 0
0 0 0 0 0 0 0 0 0 0 0 0 0 1 1 1 1 1 1 1 1 1 1 1 1 1 0 0 0 0 0 0 0 0 0 0 0 0 0 0 0 0 0 0 0 0 0 0 0
0 0 0 0 0 0 0 0 0 0 0 0 0 1 1 1 1 1 1 1 1 1 1 1 1 1 0 0 0 0 0 0 0 0 0 0 0 0 0 0 0 0 0 0 0 0 0 0 0
0 0 0 0 0 0 0 0 0 0 0 0 0 1 1 1 1 1 1 1 1 1 1 1 1 0 0 0 0 0 0 0 0 0 0 0 0 0 0 0 0 0 0 0 0 0 0 0 0
0 0 0 0 0 0 0 0 0 0 0 0 1 1 1 1 1 1 1 1 1 1 1 1 0 0 0 0 0 0 0 0 0 0 0 0 0 0 0 0 0 0 0 0 0 0 0 0 0
0 0 0 0 0 0 0 0 0 0 0 1 1 1 1 1 1 1 1 1 1 1 1 1 1 0 0 0 0 0 0 0 0 0 0 0 0 0 0 0 0 0 0 0 0 0 0 0 0
0 0 0 0 0 0 0 0 0 0 0 1 1 1 1 1 1 1 1 1 2 1 1 1 1 1 1 0 0 0 0 0 0 0 0 0 0 0 0 0 0 0 0 0 0 0 0 0 0
0 0 0 0 0 0 0 0 0 0 0 1 1 1 1 1 1 1 1 2 2 2 1 1 1 1 1 1 1 0 0 0 0 0 0 0 0 0 0 0 0 0 0 0 0 0 0 0 0
0 0 0 0 0 0 0 0 0 0 0 1 1 1 1 1 1 2 2 2 2 2 2 2 2 2 2 1 1 1 1 0 0 0 0 0 0 0 0 0 0 0 0 0 0 0 0 0 0
0 0 0 0 0 0 0 0 0 0 0 1 1 1 1 1 1 2 2 2 2 2 2 2 2 2 2 1 1 1 1 1 1 0 0 0 0 0 0 0 0 0 0 0 0 0 0 0 0
0 0 0 0 0 0 0 0 0 0 1 1 1 1 1 1 1 2 2 2 2 2 2 2 2 2 2 1 1 1 1 1 0 0 0 0 0 0 0 0 0 0 0 0 0 0 0 0 0
0 0 0 0 0 0 0 0 0 1 1 1 1 1 1 1 1 1 2 2 2 2 2 2 2 2 1 1 1 1 1 0 0 0 0 0 0 0 0 0 0 0 0 0 0 0 0 0 0
0 0 0 0 0 0 0 0 0 1 1 1 1 1 2 2 1 1 1 1 2 2 2 2 1 1 1 1 1 1 1 0 0 0 0 0 0 0 0 0 0 0 0 0 0 0 0 0 0
0 0 0 0 0 0 0 0 0 1 1 1 1 1 2 2 1 1 1 1 1 1 1 1 1 1 1 1 1 1 1 0 0 0 0 0 0 0 0 0 0 0 0 0 0 0 0 0 0
0 0 0 0 0 0 0 0 0 1 1 1 1 1 2 2 1 1 1 1 1 1 1 1 1 1 1 1 1 1 0 0 0 0 0 0 0 0 0 0 0 0 0 0 0 0 0 0 0
0 0 0 0 0 0 0 0 0 0 1 1 1 1 1 1 1 1 1 1 1 1 1 1 1 1 1 1 1 0 0 0 0 0 0 0 0 0 0 0 0 0 0 0 0 0 0 0 0
0 0 0 0 0 0 0 0 0 0 0 1 1 1 1 1 1 1 1 1 1 1 1 1 1 1 1 1 0 0 0 0 0 0 0 0 0 0 0 0 0 0 0 0 0 0 0 0 0
0 0 0 0 0 0 0 0 0 0 0 0 1 1 1 1 1 1 1 1 1 1 1 1 1 1 1 1 0 0 0 0 0 0 0 0 0 0 0 0 0 0 0 0 0 0 0 0 0
0 0 0 0 0 0 0 0 0 0 0 0 0 0 0 1 1 1 1 1 1 1 1 1 1 1 1 0 0 0 0 0 0 0 0 0 0 0 0 0 0 0 0 0 0 0 0 0 0
0 0 0 0 0 0 0 0 0 0 0 0 0 0 0 0 0 0 1 1 1 1 1 1 1 1 1 0 0 0 0 0 0 0 0 0 0 0 0 0 0 0 0 0 0 0 0 0 0
0 0 0 0 0 0 0 0 0 0 0 0 0 0 0 0 0 0 0 0 0 1 1 1 1 1 1 0 0 0 0 0 0 0 0 0 0 0 0 0 0 0 0 0 0 0 0 0 0
0 0 0 0 0 0 0 0 0 0 0 0 0 0 0 0 0 0 0 0 1 1 1 1 1 1 0 0 0 0 0 0 0 0 0 0 0 0 0 0 0 0 0 0 0 0 0 0 0
0 0 0 0 0 0 0 0 0 0 0 0 0 0 0 0 0 0 0 0 1 1 1 1 1 1 1 0 0 0 0 0 0 0 0 0 0 0 0 0 0 0 0 0 0 0 0 0 0
0 0 0 0 0 0 0 0 0 0 0 0 0 0 0 0 0 0 0 0 1 1 1 1 1 1 1 1 1 0 0 0 0 0 0 0 0 0 0 0 0 0 0 0 0 0 0 0 0
0 0 0 0 0 0 0 0 0 0 0 0 0 0 0 0 0 0 0 0 1 1 1 1 1 1 1 1 1 1 1 1 0 0 0 0 0 1 1 0 0 0 0 0 0 0 0 0 0
0 0 0 0 0 0 0 0 0 0 0 0 0 0 0 0 0 0 0 0 1 1 1 1 1 1 1 1 1 1 1 1 1 1 1 1 1 1 1 1 0 0 0 0 0 0 0 0 0
Wind_Speed
10 13 11 9 7 5 6 6 6 9 9 9 8 7 9 12 9 8 8 17 24 22 19 18 17 16 15 15 15 14 14 13 13 12 12 12 12 12 12 12 12 13 13 13 12 13 13 12 11
11 14 11 8 8 5 2 4 7 10 8 6 5 5 9 11 11 12 12 18 23 21 18 17 18 16 16 15 15 14 14 13 13 12 11 11 12 11 11 12 12 12 12 12 12 12 12 11 10
14 17 10 9 10 8 1 2 6 8 6 3 4 6 8 8 10 10 14 19 21 19 17 18 18 17 16 16 15 14 14 13 12 12 11 11 11 11 11 11 11 12 12 12 11 11 11 10 9
10 10 8 9 10 8 2 3 4 4 5 3 3 6 9 7 8 12 16 19 21 19 18 18 18 17 16 16 15 14 14 13 12 11 11 11 11 11 11 11 11 11 11 11 11 10 10 9 8
11 9 11 12 12 8 2 5 4 3 2 3 3 8 9 8 10 15 15 18 19 19 18 18 18 17 16 16 15 14 13 12 12 11 11 10 10 10 10 10 10 10 10 10 10 10 9 8 6
9 9 11 11 7 3 3 5 3 2 2 2 3 7 8 8 11 14 15 16 18 19 18 17 18 17 16 15 14 14 13 12 11 11 10 10 10 10 10 10 10 10 9 9 9 8 7 6 4
11 11 14 14 7 2 4 4 3 3 3 2 2 6 9 9 12 13 14 14 17 19 18 16 15 15 16 15 14 13 13 12 11 10 10 9 9 9 9 9 9 9 8 7 7 6 5 4 2
11 10 15 12 7 3 5 2 2 3 3 3 1 5 8 11 13 13 13 13 16 18 17 15 15 14 13 12 14 13 13 12 11 10 10 9 9 9 9 9 8 8 7 6 5 4 3 2 2
12 9 10 9 7 5 5 3 2 1 2 2 6 10 12 13 14 13 12 11 12 15 14 15 16 13 13 13 13 13 12 11 11 9 9 8 6 7 7 8 9 7 6 5 4 4 3 3 4
9 8 9 7 8 8 6 4 3 2 0 5 8 12 14 13 13 14 13 12 12 13 13 12 14 12 11 11 10 8 8 8 7 6 7 5 3 4 6 10 8 7 6 5 5 5 4 4 2
10 10 9 8 6 8 7 4 3 3 3 4 7 12 13 13 13 13 13 12 11 12 10 12 11 9 9 7 7 5 4 5 5 5 4 2 2 3 5 4 4 4 5 2 3 3 2 1 0
10 10 8 7 7 7 7 6 4 3 5 6 6 10 12 13 13 13 12 12 11 11 10 11 11 8 7 6 5 5 5 4 4 4 2 2 1 2 3 2 2 2 1 1 1 0 0 1 0
10 11 10 7 7 6 7 6 3 1 5 5 7 10 11 11 11 10 9 10 10 9 9 9 9 8 7 5 3 4 4 5 5 4 3 2 2 2 3 2 1 1 1 1 0 1 0 0 1
11 10 9 7 8 7 7 5 2 1 5 4 6 8 10 10 11 11 10 9 10 9 9 9 10 9 7 5 3 3 4 4 5 4 4 3 3 3 2 2 1 1 1 1 1 1 1 0 0
12 13 10 8 9 8 7 4 2 2 4 5 6 7 9 9 10 11 10 9 10 10 10 10 10 9 8 7 5 4 4 5 4 4 4 3 4 2 1 2 2 1 2 2 1 0 0 1 1
15 12 10 9 11 8 7 4 3 5 5 5 7 8 8 7 9 9 9 7 7 9 8 8 10 10 7 5 4 3 3 4 4 4 4 4 3 2 1 1 2 1 1 1 1 1 0 1 0
11 10 11 8 8 7 7 3 6 6 5 7 8 9 9 9 9 10 11 10 9 9 8 7 8 10 8 6 4 3 3 3 3 4 4 4 3 2 2 3 2 1 1 1 1 2 1 1 1
9 10 8 7 5 7 8 5 7 8 7 6 8 8 10 11 10 11 11 11 10 10 8 7 9 9 8 5 4 3 3 3 3 4 4 4 3 2 1 3 2 1 2 2 2 1 1 0 1
12 13 11 8 6 7 8 6 4 7 7 6 7 8 9 11 11 11 11 12 11 11 10 9 9 8 7 5 4 4 4 4 4 4 5 4 4 3 1 3 2 2 3 2 2 1 1 0 0
13 13 12 8 8 8 8 6 1 2 5 5 7 8 9 11 12 12 11 11 12 11 10 9 10 9 8 5 4 4 4 4 4 4 5 4 4 4 4 2 2 3 2 2 2 1 2 1 1
13 11 11 12 12 9 8 6 2 4 5 7 8 9 11 13 13 13 13 12 12 12 12 10 10 10 9 8 5 4 3 3 4 5 4 4 4 3 2 3 2 2 3 2 1 1 2 2 1
12 10 12 14 13 8 6 3 3 6 7 7 8 9 11 12 13 14 14 13 13 12 11 10 10 9 9 8 7 8 6 5 5 5 5 5 4 4 4 3 2 1 1 2 2 2 1 1 1
13 12 13 14 12 10 8 5 5 9 9 10 10 10 11 13 15 15 14 14 14 13 12 11 10 9 9 8 8 7 6 5 4 5 7 5 4 4 4 4 3 2 1 2 2 2 2 2 2
12 13 13 9 5 6 9 7 3 7 8 9 10 10 11 13 15 15 14 13 12 13 12 12 11 10 9 8 8 7 7 6 6 6 7 5 4 4 5 5 3 2 2 3 2 1 1 1 2
12 10 8 5 2 5 10 8 3 6 8 9 11 11 12 13 14 15 15 15 13 14 14 13 12 10 9 9 8 7 6 6 6 6 7 6 5 5 6 6 5 3 3 3 2 2 1 1 0
12 12 9 6 5 6 6 5 3 4 8 10 11 12 13 13 13 14 15 14 13 14 13 14 13 11 11 9 8 7 7 5 5 6 5 6 4 6 8 6 6 5 4 5 3 3 3 2 1
14 12 9 8 10 9 2 3 4 3 5 10 12 12 13 13 14 15 15 15 14 14 13 14 13 12 11 10 8 7 7 6 6 7 5 4 3 5 8 7 6 5 5 3 4 3 3 3 3
14 11 7 7 7 8 1 3 2 2 4 7 11 12 13 13 14 15 15 15 14 14 13 14 13 12 11 10 9 9 8 6 5 5 6 4 4 4 7 7 6 6 5 5 4 3 3 3 3
9 10 8 8 8 7 4 1 5 7 6 7 10 11 12 13 14 14 13 14 14 14 14 13 13 12 11 11 9 8 9 8 7 5 6 5 4 5 6 6 6 6 6 6 5 5 4 5 4
10 10 8 8 9 8 6 1 3 1 5 5 7 9 10 11 12 13 13 13 12 13 14 14 14 13 12 11 10 9 8 8 8 8 7 6 6 6 6 6 6 7 7 7 6 6 5 5 5
Wind_Direction
224 237 235 247 245 247 286 302 33 52 55 47 40 29 51 57 72 98 130 125 117 121 126 127 126 126 125 123 122 122 120 117 115 112 109 106 102 98 95 93 93 92 90 89 88 87 86 84 82
249 247 242 246 255 269 285 314 43 63 63 61 64 56 69 69 85 114 126 120 119 124 133 129 128 126 125 123 122 122 121 119 117 115 112 109 105 101 97 95 95 93 92 90 89 88 87 85 82
256 261 260 252 256 276 317 34 48 82 83 73 76 67 67 83 95 118 126 125 123 127 126 127 131 128 126 124 123 123 123 123 121 118 114 111 107 103 100 97 96 95 94 92 91 90 87 84 80
250 244 243 261 284 294 321 42 36 76 107 98 75 85 78 72 106 127 134 129 124 128 127 131 132 130 129 127 126 126 126 126 124 121 118 115 110 106 102 100 99 98 97 96 95 93 90 85 80
244 259 250 261 274 281 7 44 14 7 78 85 90 95 94 91 115 130 139 130 132 132 129 134 134 132 131 131 130 131 130 129 126 124 121 117 112 108 106 103 102 102 101 100 98 97 93 87 80
253 255 266 273 274 294 36 52 356 13 57 61 102 114 97 112 126 137 142 138 138 132 131 133 135 135 135 135 136 135 134 132 129 127 123 120 119 116 113 109 106 104 104 104 103 101 99 92 81
259 275 281 288 302 339 56 37 354 12 37 60 83 104 118 139 135 142 144 144 138 131 131 140 140 139 139 139 140 140 138 136 135 133 132 131 130 129 125 119 114 110 109 110 111 110 110 110 101
257 281 290 296 310 27 63 20 39 19 50 56 12 98 130 139 141 143 143 142 135 131 137 145 145 145 146 145 145 144 143 143 143 144 146 147 146 145 141 136 125 122 119 121 123 129 138 153 194
255 263 282 301 335 19 38 357 32 67 175 129 74 88 126 142 144 143 144 144 138 135 142 153 146 151 154 151 148 150 149 150 153 158 163 168 170 159 158 133 135 136 138 143 152 171 190 216 225
244 260 283 332 345 345 358 338 333 270 88 98 103 111 132 150 153 153 154 155 141 140 148 149 149 154 158 150 146 158 161 155 173 161 172 185 168 152 136 135 144 149 157 170 185 203 220 232 221
253 268 300 324 336 331 319 314 314 319 77 102 132 140 147 157 160 161 160 158 147 146 150 147 142 147 142 128 153 150 141 148 168 156 168 156 147 137 127 143 150 167 176 188 180 202 233 250 127
253 276 289 296 314 306 308 307 314 12 80 99 129 146 155 166 170 170 165 159 154 153 147 144 141 138 124 140 142 136 141 151 141 142 154 125 105 92 108 115 136 154 158 167 170 228 283 319 12
251 263 268 281 286 288 296 294 300 62 101 117 150 154 164 168 170 163 160 156 156 152 142 137 138 128 120 117 131 134 130 136 130 126 113 122 123 100 105 109 122 126 124 120 48 329 289 284 335
281 285 289 292 291 281 275 288 285 178 131 144 148 160 165 168 164 158 156 158 157 147 135 132 135 130 124 120 106 100 107 111 116 122 121 115 104 101 118 145 143 148 144 135 195 231 251 27 10
279 279 280 280 270 263 272 273 269 171 155 165 160 165 162 164 163 160 161 162 155 146 141 139 141 140 137 137 145 130 134 129 121 115 116 110 105 124 153 158 143 120 144 142 150 61 253 203 209
279 277 276 265 252 248 255 266 179 182 180 178 172 165 160 155 161 154 150 151 152 145 143 155 152 141 139 133 135 127 131 125 129 130 125 120 121 141 192 112 88 26 126 132 137 123 28 9 14
273 268 271 262 239 259 261 250 177 183 194 183 175 168 158 155 158 153 154 163 163 152 149 157 135 136 137 133 128 119 114 127 135 132 130 133 140 143 107 87 78 285 95 77 56 74 36 11 6
285 287 282 278 242 266 275 246 184 183 202 191 174 167 160 166 165 162 157 161 158 149 155 154 138 137 137 137 132 128 139 140 132 124 131 146 150 122 106 121 96 22 75 70 68 74 60 302 323
285 291 300 310 307 288 287 281 213 187 189 191 176 169 163 166 163 160 162 165 160 155 161 159 146 145 145 146 152 157 161 157 142 139 144 154 147 127 77 106 124 92 86 74 61 20 261 212 16
281 292 301 305 292 280 290 295 329 182 190 194 178 173 165 165 165 165 167 169 163 157 161 162 153 156 156 152 162 167 159 160 144 136 144 157 153 155 156 131 146 114 114 97 86 41 337 322 95
282 294 299 299 291 285 286 285 161 202 186 181 177 177 173 172 171 168 166 170 165 163 168 169 162 160 162 159 169 159 141 153 141 143 158 166 159 143 100 124 119 148 154 130 110 23 28 358 354
280 288 292 293 292 296 290 279 185 199 195 190 180 179 175 171 168 168 169 172 171 168 169 164 162 164 165 168 173 166 171 175 164 163 156 164 166 153 154 150 137 113 108 131 179 108 321 293 304
283 294 293 298 310 315 317 298 193 188 195 191 179 178 174 169 168 170 174 172 170 168 168 165 163 167 169 178 177 179 176 174 161 153 148 163 164 170 169 162 160 164 127 117 95 97 3 342 351
276 285 287 299 332 320 287 279 220 185 181 164 162 165 167 166 167 168 169 166 166 165 164 164 165 170 173 181 176 187 180 175 160 158 155 172 167 180 176 170 168 181 161 144 139 145 152 44 15
261 273 287 310 340 265 261 264 187 167 144 144 151 156 162 165 166 167 167 167 168 167 167 166 166 170 176 181 177 185 184 175 165 169 170 186 178 180 177 176 169 183 164 166 164 165 167 158 107
257 258 268 284 274 263 248 252 120 112 120 133 143 152 160 166 168 170 170 170 172 170 169 166 169 174 179 181 178 180 181 182 180 193 188 192 200 176 161 164 169 185 183 184 174 190 186 178 205
255 260 272 273 272 277 233 4 51 90 127 141 146 155 161 167 170 172 172 174 176 175 173 170 172 177 181 182 177 181 186 202 191 177 205 197 184 152 154 166 174 182 187 188 174 212 206 168 196
246 263 276 280 287 294 10 48 305 277 220 175 156 159 162 166 171 173 173 177 178 177 172 168 172 178 181 179 180 185 191 197 191 186 195 202 178 157 154 169 175 180 180 188 197 217 200 196 211
251 248 258 277 284 294 299 210 206 237 236 208 163 160 163 170 169 171 174 175 175 175 172 171 172 177 181 184 188 187 185 188 191 201 190 188 178 162 167 177 183 186 185 185 195 232 205 199 213
265 258 252 257 269 280 289 143 135 199 261 208 150 148 160 167 167 169 171 169 173 176 175 175 177 183 186 185 185 189 186 187 191 198 192 183 180 178 181 186 192 198 194 189 194 218 222 205 209